DW7076 Floda SE current weather conditions

sailwx.info

Wind from 148

Air temperature 11.1° C
Dewpoint 10.2° C

Last reported at 2014-Aug-22 20:56 UTC.
Time now 2014-Aug-22 21:43 UTC

Location: N 57°49' E 012°21'.
View on Google Maps.

See reports from other nearby stations

  
Tides and Currents Weather Stations Pressure Air Temp Water Temp Dewpoint Dewpoint Depression Visibility Wind Speed Wind Dir Waves Ship Positions
date/time (UTC)wind fromknots sea level pressurealtimeterstation pressurevisibilityair tempwater tempwave heightnotes
2014-Aug-22 20:56 148 11.1
2014-Aug-22 20:46 148 11.1
2014-Aug-22 20:36 148 11.1
2014-Aug-22 20:26 148 11.7
2014-Aug-22 20:16 148 11.7
2014-Aug-22 20:06 148 11.7
2014-Aug-22 19:56 148 11.7
2014-Aug-22 19:46 148 11.7
2014-Aug-22 19:36 148 12.2
2014-Aug-22 19:26 148 0 gusting 2 12.2
2014-Aug-22 19:16 148 12.2
2014-Aug-22 19:06 148 12.2
2014-Aug-22 18:56 148 12.2
2014-Aug-22 18:46 202 12.8
2014-Aug-22 18:36 153 12.8
2014-Aug-22 18:26 153 12.8
2014-Aug-22 18:16 153 12.8
2014-Aug-22 18:06 153 12.8
2014-Aug-22 17:56 153 0 gusting 2 13.3
2014-Aug-22 17:46 158 0 gusting 1 13.3
2014-Aug-22 17:36 158 12.8
2014-Aug-22 17:26 139 12.8
2014-Aug-22 17:16 101 0 gusting 5 12.8
2014-Aug-22 17:06 165 12.8
2014-Aug-22 16:56 165 12.8
2014-Aug-22 16:46 165 0 gusting 2 12.8
2014-Aug-22 16:36 163 0 gusting 2 12.8
2014-Aug-22 16:26 190 12.8
2014-Aug-22 16:16 190 0 gusting 4 12.8
2014-Aug-22 16:06 172 0 gusting 4 12.8
2014-Aug-22 15:56 175 12.8
2014-Aug-22 15:46 175 1 gusting 8 12.8
2014-Aug-22 15:36 207 2 gusting 10 12.8
2014-Aug-22 15:26 167 2 gusting 8 13.3
2014-Aug-22 15:16 190 1 gusting 10 13.3
2014-Aug-22 15:06 176 1 gusting 5 13.3
2014-Aug-22 14:56 071 0 gusting 4 13.3
2014-Aug-22 14:46 201 13.3
2014-Aug-22 14:36 160 0 gusting 4 13.3
2014-Aug-22 14:26 275 0 gusting 2 13.3
2014-Aug-22 14:16 173 0 gusting 1 13.3
2014-Aug-22 14:06 173 0 gusting 2 13.3
2014-Aug-22 13:56 173 1 gusting 4 13.3
2014-Aug-22 13:46 167 0 gusting 2 13.9
2014-Aug-22 13:36 150 0 gusting 4 13.9
2014-Aug-22 13:26 192 0 gusting 6 13.9
2014-Aug-22 13:16 185 1 gusting 6 14.4
2014-Aug-22 13:06 175 0 gusting 8 14.4
2014-Aug-22 12:56 166 1 gusting 6 15.0
2014-Aug-22 12:46 155 0 gusting 6 15.0
2014-Aug-22 12:36 158 2 gusting 6 15.6
2014-Aug-22 12:26 138 0 gusting 6 15.6
2014-Aug-22 12:16 147 1 gusting 8 15.6
2014-Aug-22 12:06 147 2 gusting 8 14.4
2014-Aug-22 11:56 143 0 gusting 6 13.3
2014-Aug-22 11:46 161 1 gusting 6 13.3
2014-Aug-22 11:36 175 0 gusting 2 13.3
2014-Aug-22 11:26 124 13.9
2014-Aug-22 11:16 119 13.9
2014-Aug-22 11:06 123 0 gusting 5 13.9
2014-Aug-22 10:56 070 13.9
2014-Aug-22 10:46 166 13.9
2014-Aug-22 10:36 190 1 gusting 4 13.9
2014-Aug-22 10:26 135 0 gusting 6 14.4
2014-Aug-22 10:16 096 1 gusting 10 15.0
2014-Aug-22 10:06 081 1 gusting 6 15.0
2014-Aug-22 09:56 092 2 gusting 7 15.6
2014-Aug-22 09:46 209 0 gusting 6 15.0
2014-Aug-22 09:36 122 1 gusting 6 15.6
2014-Aug-22 09:26 096 0 gusting 6 15.6
2014-Aug-22 09:16 250 15.0
2014-Aug-22 09:06 144 1 gusting 6 15.0
2014-Aug-22 08:56 155 1 gusting 7 15.6
2014-Aug-22 08:46 169 2 gusting 7 15.6
2014-Aug-22 08:36 060 0 gusting 6 15.6
2014-Aug-22 08:26 158 1 gusting 6 15.0
2014-Aug-22 08:16 186 4 gusting 6 15.0
2014-Aug-22 08:06 146 2 gusting 6 14.4
2014-Aug-22 07:56 160 2 gusting 6 14.4
2014-Aug-22 07:46 162 0 gusting 7 13.9
2014-Aug-22 07:36 189 4 gusting 7 13.9
2014-Aug-22 07:26 174 1 gusting 6 13.3
2014-Aug-22 07:16 150 0 gusting 7 13.3
2014-Aug-22 07:06 169 1 gusting 5 12.8
2014-Aug-22 06:56 161 0 gusting 5 12.8
2014-Aug-22 06:46 190 1 gusting 4 12.8
2014-Aug-22 06:36 146 1 gusting 4 12.8
2014-Aug-22 06:26 158 0 gusting 6 12.2
2014-Aug-22 06:16 175 1 gusting 2 11.7
2014-Aug-22 06:06 155 11.1
2014-Aug-22 05:56 133 11.1
2014-Aug-22 05:46 109 10.6
2014-Aug-22 05:36 171 0 gusting 2 10.6
2014-Aug-22 05:26 140 0 gusting 4 10.0
2014-Aug-22 05:16 181 10.0
2014-Aug-22 05:06 181 0 gusting 2 10.0
2014-Aug-22 04:56 175 0 gusting 1 9.4
2014-Aug-22 04:46 208 9.4
2014-Aug-22 04:36 208 9.4
2014-Aug-22 04:26 208 9.4
2014-Aug-22 04:16 208 9.4
2014-Aug-22 04:06 208 8.9
2014-Aug-22 03:56 208 8.9
2014-Aug-22 03:46 208 8.9
2014-Aug-22 03:36 214 8.3
2014-Aug-22 03:26 214 8.3
2014-Aug-22 03:16 214 8.3
2014-Aug-22 03:06 214 8.3
2014-Aug-22 02:56 214 8.3
2014-Aug-22 02:46 214 8.3
2014-Aug-22 02:36 214 8.3
2014-Aug-22 02:26 214 8.9
2014-Aug-22 02:16 214 8.9
2014-Aug-22 02:06 214 8.9
2014-Aug-22 01:56 214 8.9
2014-Aug-22 01:46 214 9.4
2014-Aug-22 01:36 214 9.4
2014-Aug-22 01:26 214 9.4
2014-Aug-22 01:16 214 9.4
2014-Aug-22 01:06 214 9.4
2014-Aug-22 00:56 214 9.4
2014-Aug-22 00:46 214 9.4
2014-Aug-22 00:36 214 10.0
2014-Aug-22 00:26 214 9.4
2014-Aug-22 00:16 214 9.4
2014-Aug-22 00:06 214 9.4
2014-Aug-21 23:56 214 9.4
2014-Aug-21 23:46 214 9.4
2014-Aug-21 23:36 214 9.4
2014-Aug-21 23:26 214 9.4
2014-Aug-21 23:16 214 9.4
2014-Aug-21 23:06 214 9.4
2014-Aug-21 22:56 214 9.4
2014-Aug-21 22:46 214 9.4
2014-Aug-21 22:36 214 9.4
2014-Aug-21 22:26 214 9.4
2014-Aug-21 22:16 214 9.4
2014-Aug-21 22:06 214 9.4
2014-Aug-21 21:56 214 9.4
2014-Aug-21 21:46 214 9.4
2014-Aug-21 21:36 214 9.4
2014-Aug-21 21:26 214 9.4
2014-Aug-21 21:16 214 9.4
2014-Aug-21 21:06 214 9.4
2014-Aug-21 20:56 214 9.4
2014-Aug-21 20:46 214 9.4
2014-Aug-21 20:36 214 10.0
2014-Aug-21 20:26 214 10.0
2014-Aug-21 20:16 214 10.0
2014-Aug-21 20:06 214 10.6
2014-Aug-21 19:56 214 10.6
2014-Aug-21 19:46 214 10.6
2014-Aug-21 19:36 214 11.1
2014-Aug-21 19:26 214 11.1
2014-Aug-21 19:16 214 11.7
2014-Aug-21 19:06 214 12.2
2014-Aug-21 18:56 214 12.2
2014-Aug-21 18:46 214 12.8
2014-Aug-21 18:36 214 13.3
2014-Aug-21 18:26 214 0 gusting 6 13.3
2014-Aug-21 18:16 331 1 gusting 5 13.3
2014-Aug-21 18:06 082 2 gusting 4 13.9
2014-Aug-21 17:56 252 1 gusting 8 13.9
2014-Aug-21 17:46 300 2 gusting 10 13.9
2014-Aug-21 17:36 321 2 gusting 6 13.9
2014-Aug-21 17:26 023 0 gusting 6 13.9
2014-Aug-21 17:16 275 1 gusting 8 14.4
2014-Aug-21 17:06 311 1 gusting 5 14.4
2014-Aug-21 16:56 022 1 gusting 7 14.4
2014-Aug-21 16:46 216 1 gusting 12 15.0
2014-Aug-21 16:36 035 0 gusting 8 15.0
2014-Aug-21 16:26 216 4 gusting 10 15.0
2014-Aug-21 16:16 254 2 gusting 12 15.6
2014-Aug-21 16:06 015 3 gusting 14 15.6
2014-Aug-21 15:56 311 1 gusting 11 15.6
2014-Aug-21 15:46 282 5 gusting 12 15.6
2014-Aug-21 15:36 070 2 gusting 12 16.1
2014-Aug-21 15:26 024 4 gusting 12 16.1
2014-Aug-21 15:16 282 5 gusting 10 16.7
2014-Aug-21 15:06 299 2 gusting 13 16.1
2014-Aug-21 14:56 267 6 gusting 13 15.6
2014-Aug-21 14:46 309 2 gusting 12 16.1
2014-Aug-21 14:36 184 4 gusting 13 16.1
2014-Aug-21 14:26 348 6 gusting 13 16.7
2014-Aug-21 14:16 191 3 gusting 15 16.1
2014-Aug-21 14:06 270 5 gusting 13 16.1
2014-Aug-21 13:56 355 5 gusting 13 16.7
2014-Aug-21 13:46 293 5 gusting 13 16.7
2014-Aug-21 13:36 312 6 gusting 13 16.7
2014-Aug-21 13:26 234 4 gusting 12 16.7
2014-Aug-21 13:16 313 2 gusting 10 16.7
2014-Aug-21 13:06 213 4 gusting 14 16.1
2014-Aug-21 12:56 286 6 gusting 14 16.1
2014-Aug-21 12:46 082 5 gusting 14 16.1
2014-Aug-21 12:36 030 4 gusting 13 16.1
2014-Aug-21 12:26 217 2 gusting 10 16.1
2014-Aug-21 12:16 048 4 gusting 12 16.1
2014-Aug-21 12:06 203 3 gusting 13 16.7
2014-Aug-21 11:56 309 2 gusting 10 16.1
2014-Aug-21 11:46 299 2 gusting 12 15.6
2014-Aug-21 11:36 030 4 gusting 13 15.0
2014-Aug-21 11:26 198 2 gusting 10 15.6
2014-Aug-21 11:16 201 6 gusting 11 15.0
2014-Aug-21 11:06 005 2 gusting 10 15.0
2014-Aug-21 10:56 225 2 gusting 10 14.4
2014-Aug-21 10:46 317 4 gusting 7 14.4
2014-Aug-21 10:36 284 2 gusting 8 14.4
2014-Aug-21 10:26 233 5 gusting 12 15.0
2014-Aug-21 10:16 278 4 gusting 14 15.0
2014-Aug-21 10:06 198 4 gusting 11 15.0
2014-Aug-21 09:56 196 2 gusting 13 14.4
2014-Aug-21 09:46 291 2 gusting 10 13.9
2014-Aug-21 09:36 195 2 gusting 10 13.3
2014-Aug-21 09:26 189 1 gusting 7 13.3
2014-Aug-21 09:16 298 1 gusting 10 12.8
2014-Aug-21 09:06 298 1 gusting 6 12.8
2014-Aug-21 08:56 225 0 gusting 7 12.8
2014-Aug-21 08:46 185 1 gusting 6 12.2
2014-Aug-21 08:36 108 0 gusting 7 12.2
2014-Aug-21 08:26 262 2 gusting 6 11.7
2014-Aug-21 08:16 138 4 gusting 10 11.7
2014-Aug-21 08:06 355 0 gusting 6 11.1
2014-Aug-21 07:56 153 1 gusting 6 11.1
2014-Aug-21 07:46 131 1 gusting 4 10.6
2014-Aug-21 07:36 173 1 gusting 6 10.6
2014-Aug-21 07:26 027 0 gusting 10 10.6
2014-Aug-21 07:16 064 3 gusting 11 10.6
2014-Aug-21 07:06 326 2 gusting 11 11.1
2014-Aug-21 06:56 219 2 gusting 8 11.7
2014-Aug-21 06:46 337 0 gusting 2 11.7
2014-Aug-21 06:36 338 0 gusting 2 11.7
2014-Aug-21 06:26 338 0 gusting 5 12.2
2014-Aug-21 06:16 116 0 gusting 4 12.2
2014-Aug-21 06:06 269 1 gusting 7 12.2
2014-Aug-21 05:56 161 0 gusting 7 12.2
2014-Aug-21 05:46 331 0 gusting 5 12.8
2014-Aug-21 05:36 026 12.8
2014-Aug-21 05:26 207 2 gusting 5 12.2
2014-Aug-21 05:16 189 1 gusting 6 12.2
2014-Aug-21 05:06 312 2 gusting 10 12.8
2014-Aug-21 04:56 219 1 gusting 6 12.8
2014-Aug-21 04:46 119 0 gusting 7 12.8
2014-Aug-21 04:36 176 2 gusting 10 12.2
2014-Aug-21 04:26 138 4 gusting 10 12.2
2014-Aug-21 04:16 234 1 gusting 8 12.2
2014-Aug-21 04:06 286 1 gusting 6 12.2
2014-Aug-21 03:56 259 1 gusting 8 12.2
2014-Aug-21 03:46 190 1 gusting 13 12.2
2014-Aug-21 03:36 314 1 gusting 12 12.2
2014-Aug-21 03:26 146 3 gusting 8 12.2
2014-Aug-21 03:16 148 1 gusting 6 12.2
2014-Aug-21 03:06 205 1 gusting 6 12.2
2014-Aug-21 02:56 198 1 gusting 5 12.2
2014-Aug-21 02:46 009 1 gusting 6 12.2
2014-Aug-21 02:36 174 1 gusting 10 12.2
2014-Aug-21 02:26 121 1 gusting 5 12.2
2014-Aug-21 02:16 191 1 gusting 6 12.2
2014-Aug-21 02:06 134 0 gusting 5 12.2
2014-Aug-21 01:56 212 1 gusting 12 12.2
2014-Aug-21 01:46 062 0 gusting 6 12.2
2014-Aug-21 01:36 253 1 gusting 6 12.2
2014-Aug-21 01:26 173 3 gusting 7 12.2
2014-Aug-21 01:16 140 1 gusting 4 12.2
2014-Aug-21 01:06 118 12.2
2014-Aug-21 00:56 094 0 gusting 4 12.2
2014-Aug-21 00:46 188 2 gusting 6 12.2
2014-Aug-21 00:36 205 12.2
2014-Aug-21 00:26 270 0 gusting 5 12.2
2014-Aug-21 00:16 169 1 gusting 6 12.2
2014-Aug-21 00:06 081 0 gusting 4 12.8
2014-Aug-20 23:56 111 1 gusting 7 12.2
2014-Aug-20 23:46 092 1 gusting 7 12.2
2014-Aug-20 23:36 288 0 gusting 7 12.2
2014-Aug-20 23:26 205 2 gusting 11 12.2
2014-Aug-20 23:16 096 0 gusting 4 12.2
2014-Aug-20 23:06 192 1 gusting 7 12.2
2014-Aug-20 22:56 120 4 gusting 14 12.2
2014-Aug-20 22:46 135 0 gusting 5 12.2
2014-Aug-20 22:36 078 2 gusting 6 12.2
2014-Aug-20 22:26 172 1 gusting 6 12.8
2014-Aug-20 22:16 078 1 gusting 6 12.8
2014-Aug-20 22:06 246 1 gusting 5 12.8
2014-Aug-20 21:56 133 0 gusting 6 12.8
2014-Aug-20 21:46 200 1 gusting 7 12.8
2014-Aug-20 21:36 180 2 gusting 5 12.8
2014-Aug-20 21:26 046 0 gusting 6 12.8
2014-Aug-20 21:16 263 0 gusting 6 12.8
2014-Aug-20 21:06 345 2 gusting 4 12.8